Marathon, FL

7:42 PM EDT on April 21, 2018 (GMT -0400)
Florida Keys Marathon

Weather History for KMTH - July, 2013

Change the Weather History Date:

Thursday, July 25, 2013

  Actual Average Record
Temperature  
Mean Temperature 86 °F 85 °F  
Max Temperature 92 °F 91 °F 94 °F (2014)
Min Temperature 79 °F 80 °F 75 °F (2004)
Degree Days  
Heating Degree Days 0 0  
Month to date heating degree days 0 0  
Since 1 June heating degree days 0 0  
Since 1 July heating degree days 0 0  
Cooling Degree Days 21 20  
Month to date cooling degree days 495 500  
Year to date cooling degree days 2941 2637  
Since 1 June cooling degree days 1111 1094  
Growing Degree Days 36 (Base 50)    
Moisture  
Dew Point 72 °F    
Average Humidity 63    
Maximum Humidity 74    
Minimum Humidity 52    
Precipitation  
Precipitation 0.00 in 0.13 in 0.68 in (2015)
Month to date precipitation 6.71 3.35  
Year to date precipitation 35.72 20.90  
Snow  
Snow 0.00 in - - ()
Month to date snowfall 0.0  
Since 1 June snowfall 0.0  
Since 1 July snowfall 0.0  
Snow Depth 0.00 in    
Sea Level Pressure  
Sea Level Pressure 30.02 in    
Wind  
Wind Speed 5 mph (West)    
Max Wind Speed 12 mph    
Max Gust Speed 16 mph    
Visibility 10 miles    
Events      
T = Trace of Precipitation, MM = Missing Value Source: NWS Daily Summary

Daily Weather History Graph

Daily Weather History Graph

Search for Another Location

Airport or City:

Astronomy

Jul. 25, 2013 Rise Set
Actual Time 6:49 AM EDT 8:12 PM EDT
Civil Twilight 6:24 AM EDT 8:36 PM EDT
Nautical Twilight 5:54 AM EDT 9:06 PM EDT
Astronomical Twilight 5:24 AM EDT 9:36 PM EDT
Moon 10:23 PM EDT (7/25) 9:49 AM EDT (7/25)
Length of Visible Light 14h 12m
Length of Day
13h 23m
Waning Gibbous, 88% of the Moon is Illuminated
Jul 25
Waning Gibbous
Jul 29
Last Quarter
Aug 6
New
Aug 14
First Quarter
Aug 20
Full

Hourly Weather History & Observations

Time (EDT) Temp. Heat Index Dew Point Humidity Pressure Visibility Wind Dir Wind Speed Gust Speed Precip Events Conditions
12:04 AM 82.4 °F 87.2 °F 71.6 °F 70% 30.00 in 10.0 mi Calm Calm - N/A   Mostly Cloudy
12:14 AM 82.4 °F 87.2 °F 71.6 °F 70% 30.00 in 10.0 mi Calm Calm - N/A   Scattered Clouds
12:53 AM 82.0 °F 86.3 °F 71.1 °F 69% 30.00 in 10.0 mi Calm Calm - N/A   Clear
1:53 AM 82.0 °F 86.7 °F 72.0 °F 71% 29.98 in 10.0 mi Calm Calm - N/A   Partly Cloudy
2:53 AM 81.0 °F 84.9 °F 71.1 °F 72% 29.96 in 10.0 mi Calm Calm - N/A   Scattered Clouds
3:53 AM 81.0 °F 85.2 °F 72.0 °F 74% 29.96 in 10.0 mi Calm Calm - N/A   Scattered Clouds
4:53 AM 81.0 °F 85.2 °F 72.0 °F 74% 29.95 in 10.0 mi Calm Calm - N/A   Clear
5:53 AM 80.1 °F 83.6 °F 71.1 °F 74% 29.96 in 10.0 mi Calm Calm - N/A   Clear
6:53 AM 82.0 °F 86.7 °F 72.0 °F 71% 29.97 in 10.0 mi Calm Calm - N/A   Partly Cloudy
7:53 AM 84.0 °F 90.2 °F 73.0 °F 69% 29.99 in 10.0 mi SW 4.6 mph - N/A   Scattered Clouds
8:53 AM 87.1 °F 93.6 °F 72.0 °F 61% 30.01 in 10.0 mi Variable 3.5 mph - N/A   Clear
9:53 AM 88.0 °F 95.6 °F 73.0 °F 61% 30.02 in 10.0 mi Variable 4.6 mph - N/A   Partly Cloudy
10:53 AM 87.1 °F 92.0 °F 70.0 °F 57% 30.04 in 10.0 mi West 6.9 mph - N/A   Scattered Clouds
11:53 AM 89.1 °F 95.0 °F 71.1 °F 55% 30.05 in 10.0 mi West 6.9 mph - N/A   Partly Cloudy
12:53 PM 91.9 °F 99.5 °F 72.0 °F 52% 30.06 in 10.0 mi West 5.8 mph - N/A   Partly Cloudy
1:21 PM 87.8 °F 93.8 °F 71.6 °F 58% 30.06 in 10.0 mi WNW 4.6 mph - N/A   Overcast
1:49 PM 89.6 °F 98.2 °F 73.4 °F 59% 30.06 in 10.0 mi NW 6.9 mph - N/A   Scattered Clouds
1:53 PM 90.0 °F 99.0 °F 73.9 °F 59% 30.06 in 10.0 mi WNW 9.2 mph - N/A   Partly Cloudy
2:53 PM 91.0 °F 99.3 °F 73.0 °F 55% 30.04 in 10.0 mi WNW 8.1 mph - N/A   Clear
3:53 PM 90.0 °F 96.4 °F 71.1 °F 54% 30.04 in 10.0 mi West 8.1 mph - N/A   Clear
4:53 PM 90.0 °F 95.4 °F 70.0 °F 52% 30.04 in 10.0 mi West 8.1 mph - N/A   Clear
5:53 PM 90.0 °F 95.4 °F 70.0 °F 52% 30.04 in 10.0 mi WNW 9.2 mph - N/A   Clear
6:53 PM 88.0 °F 93.8 °F 71.1 °F 57% 30.04 in 10.0 mi West 8.1 mph - N/A   Clear
7:53 PM 86.0 °F 91.5 °F 71.1 °F 61% 30.04 in 10.0 mi WNW 9.2 mph - N/A   Partly Cloudy
8:53 PM 84.9 °F 90.7 °F 72.0 °F 65% 30.05 in 10.0 mi WNW 6.9 mph - N/A   Partly Cloudy
9:53 PM 84.9 °F 90.7 °F 72.0 °F 65% 30.06 in 10.0 mi West 5.8 mph - N/A   Partly Cloudy
10:53 PM 84.9 °F 90.7 °F 72.0 °F 65% 30.07 in 10.0 mi West 4.6 mph - N/A   Partly Cloudy
11:53 PM 82.9 °F 88.0 °F 72.0 °F 69% 30.06 in 10.0 mi West 3.5 mph - N/A   Clear